Minneapolis, MN

2:10 AM CDT on August 29, 2016 (GMT -0500)
Minneapolis-Saint Paul International

Weather History for KMSP - January, 2014

Change the Weather History Date:

Monday, January 27, 2014

  Actual Average Record
Temperature  
Mean Temperature -11 °F 16 °F  
Max Temperature -6 °F 24 °F 47 °F (1934)
Min Temperature -16 °F 8 °F -23 °F (1950)
Degree Days  
Heating Degree Days 76 49  
Month to date heating degree days 1520 1339  
Since 1 July heating degree days 4643 4362  
Cooling Degree Days 0 0  
Month to date cooling degree days 0 0  
Year to date cooling degree days 0 0  
Moisture  
Dew Point -21 °F    
Average Humidity 61    
Maximum Humidity 70    
Minimum Humidity 52    
Precipitation  
Precipitation 0.00 in 0.03 in 0.49 in (2013)
Month to date precipitation 0.98 0.80  
Year to date precipitation 0.98 0.80  
Snow  
Snow 0.00 in 0.40 in 3.80 in (1916)
Month to date snowfall 16.3 10.8  
Since 1 July snowfall 33.3 32.6  
Snow Depth 12.00 in    
Sea Level Pressure  
Sea Level Pressure 30.43 in    
Wind  
Wind Speed 13 mph (WNW)    
Max Wind Speed 26 mph    
Max Gust Speed 33 mph    
Visibility 10 miles    
Events      
T = Trace of Precipitation, MM = Missing Value Source: NWS Daily Summary

Daily Weather History Graph

Daily Weather History Graph

Search for Another Location

Airport or City:

Trip Planner

Search our weather history database for the weather conditions in past years. The results will help you decide how hot, cold, wet, or windy it might be!

Date:

Astronomy

Jan. 27, 2014 Rise Set
Actual Time 7:37 AM CST 5:14 PM CST
Civil Twilight 7:06 AM CST 5:45 PM CST
Nautical Twilight 6:30 AM CST 6:21 PM CST
Astronomical Twilight 5:56 AM CST 6:55 PM CST
Moon 4:21 AM CST (1/27) 1:58 PM CST (1/27)
Length of Visible Light 10h 39m
Length of Day
9h 36m
Waning Crescent, 14% of the Moon is Illuminated
Jan 27
Waning Crescent
Jan 30
New
Feb 6
First Quarter
Feb 14
Full
Feb 22
Last Quarter

Hourly Weather History & Observations

Time (CST) Temp. Windchill Dew Point Humidity Pressure Visibility Wind Dir Wind Speed Gust Speed Precip Events Conditions
12:53 AM -9.0 °F -33.0 °F -18.9 °F 62% 30.18 in 10.0 mi WNW 18.4 mph 31.1 mph N/A   Partly Cloudy
1:53 AM -11.0 °F -35.6 °F -20.0 °F 64% 30.22 in 10.0 mi WNW 18.4 mph 26.5 mph N/A   Clear
2:53 AM -11.9 °F -35.4 °F -20.9 °F 64% 30.26 in 10.0 mi WNW 16.1 mph - N/A   Clear
3:53 AM -13.0 °F -38.8 °F -22.0 °F 64% 30.29 in 10.0 mi WNW 19.6 mph 27.6 mph N/A   Scattered Clouds
4:53 AM -14.1 °F -37.4 °F -22.0 °F 68% 30.32 in 10.0 mi NW 15.0 mph 25.3 mph N/A   Scattered Clouds
5:53 AM -14.1 °F -35.7 °F -23.1 °F 64% 30.35 in 10.0 mi WNW 12.7 mph 24.2 mph N/A   Scattered Clouds
6:53 AM -15.0 °F -37.7 °F -24.0 °F 64% 30.38 in 10.0 mi NW 13.8 mph 23.0 mph N/A   Partly Cloudy
7:53 AM -16.1 °F -37.2 °F -24.0 °F 67% 30.41 in 10.0 mi WNW 11.5 mph 19.6 mph N/A   Clear
8:53 AM -15.0 °F -34.8 °F -24.0 °F 64% 30.44 in 10.0 mi WNW 10.4 mph 20.7 mph N/A   Clear
9:53 AM -14.1 °F -36.6 °F -24.0 °F 61% 30.45 in 10.0 mi NW 13.8 mph 23.0 mph N/A   Clear
10:53 AM -11.9 °F -34.6 °F -23.1 °F 58% 30.48 in 10.0 mi WNW 15.0 mph 21.9 mph N/A   Clear
11:53 AM -9.9 °F -27.5 °F -20.9 °F 59% 30.48 in 10.0 mi WNW 9.2 mph - N/A   Clear
12:53 PM -8.0 °F -25.0 °F -20.0 °F 56% 30.48 in 10.0 mi West 9.2 mph 18.4 mph N/A   Clear
1:53 PM -7.1 °F -27.6 °F -18.9 °F 56% 30.47 in 10.0 mi West 13.8 mph - N/A   Clear
2:53 PM -7.1 °F -28.4 °F -18.9 °F 56% 30.47 in 10.0 mi West 15.0 mph - N/A   Clear
3:53 PM -6.0 °F -25.5 °F -18.0 °F 56% 30.48 in 10.0 mi West 12.7 mph - N/A   Clear
4:53 PM -7.1 °F -28.4 °F -18.0 °F 59% 30.48 in 10.0 mi West 15.0 mph - N/A   Clear
5:53 PM -8.0 °F -25.0 °F -18.0 °F 61% 30.49 in 10.0 mi West 9.2 mph - N/A   Clear
6:53 PM -9.0 °F -29.3 °F -18.9 °F 62% 30.49 in 10.0 mi West 12.7 mph - N/A   Clear
7:53 PM -9.9 °F -28.6 °F -18.9 °F 65% 30.51 in 10.0 mi West 10.4 mph - N/A   Clear
8:53 PM -11.0 °F -30.9 °F -20.0 °F 64% 30.51 in 10.0 mi West 11.5 mph - N/A   Clear
9:53 PM -11.0 °F -27.6 °F -20.0 °F 64% 30.50 in 10.0 mi West 8.1 mph - N/A   Clear
10:53 PM -11.9 °F -28.7 °F -18.9 °F 71% 30.49 in 10.0 mi West 8.1 mph - N/A   Clear
11:53 PM -13.0 °F - -18.9 °F 75% 30.48 in 10.0 mi Calm Calm - N/A   Clear